DW2913 Weather Reports


Display with metric or nautical units.
time (UTC)temp
F
wind
direction
speed
MPH
gust
MPH
rain 1hr
in
rain 24hr
in
rain mn
in
humidity
%
barometer
mb
20180527174022 75 51 1.0 5.0 0.00 0.00 0.00 58 1014.7
20180527173526 75 51 2.0 6.0 0.00 0.00 0.00 58 1014.7
20180527173026 75 51 2.0 6.0 0.00 0.00 0.00 58 1014.8
20180527172523 75 52 2.0 5.0 0.00 0.00 0.00 57 1014.8
20180527172023 75 52 3.0 5.0 0.00 0.00 0.00 57 1014.9
20180527171525 75 49 2.0 5.0 0.00 0.00 0.00 56 1015.0
20180527171023 75 71 1.0 5.0 0.00 0.00 0.00 56 1014.9
20180527170527 76 73 1.0 5.0 0.00 0.00 0.00 57 1015.0
20180527170033 76 74 1.0 6.0 0.00 0.00 0.00 56 1015.0
20180527165524 76 74 1.0 6.0 0.00 0.00 0.00 56 1015.0
20180527165025 76 75 2.0 6.0 0.00 0.00 0.00 55 1015.1
20180527164528 76 50 2.0 6.0 0.00 0.00 0.00 54 1015.1
20180527164025 77 72 1.0 6.0 0.00 0.00 0.00 54 1015.0
20180527163527 77 78 1.0 6.0 0.00 0.00 0.00 55 1015.0
20180527163028 77 79 1.0 6.0 0.00 0.00 0.00 54 1014.9
20180527162526 77 73 1.0 6.0 0.00 0.00 0.00 53 1014.9
20180527162025 77 67 2.0 8.0 0.00 0.00 0.00 53 1014.9
20180527161526 77 69 2.0 8.0 0.00 0.00 0.00 52 1014.9
20180527161024 78 72 2.0 8.0 0.00 0.00 0.00 51 1014.9
20180527160527 78 71 2.0 7.0 0.00 0.00 0.00 52 1014.9
20180527160033 79 68 2.0 7.0 0.00 0.00 0.00 49 1014.9
20180527155523 78 49 2.0 5.0 0.00 0.00 0.00 50 1014.9
20180527155022 78 53 2.0 5.0 0.00 0.00 0.00 48 1015.0
20180527154525 78 55 1.0 5.0 0.00 0.00 0.00 46 1015.2
20180527154022 78 57 1.0 5.0 0.00 0.00 0.00 47 1015.1
20180527153524 78 55 1.0 4.0 0.00 0.00 0.00 47 1015.2
20180527153026 79 51 0.0 4.0 0.00 0.00 0.00 47 1015.4
20180527152525 79 32 0.0 6.0 0.00 0.00 0.00 47 1015.3
20180527152023 79 22 0.0 6.0 0.00 0.00 0.00 48 1015.4
20180527151524 79 16 1.0 6.0 0.00 0.00 0.00 49 1015.5
20180527151022 79 33 2.0 6.0 0.00 0.00 0.00 49 1015.4
20180527150525 79 32 3.0 6.0 0.00 0.00 0.00 48 1015.5
20180527150042 79 31 3.0 6.0 0.00 0.00 0.00 48 1015.6
20180527145523 79 34 2.0 5.0 0.00 0.00 0.00 48 1015.8
20180527145022 79 36 1.0 5.0 0.00 0.00 0.00 49 1015.8
20180527144525 79 40 1.0 6.0 0.00 0.00 0.00 49 1015.8
20180527144022 78 40 2.0 6.0 0.00 0.00 0.00 51 1015.9
20180527143523 78 42 2.0 6.0 0.00 0.00 0.00 51 1015.9
20180527143027 78 0 2.0 6.0 0.00 0.00 0.00 51 1015.9
20180527142524 78 5 2.0 5.0 0.00 0.00 0.00 50 1015.9
20180527142024 78 5 1.0 5.0 0.00 0.00 0.00 50 1015.9
20180527141524 78 5 0.0 5.0 0.00 0.00 0.00 50 1016.0
20180527141023 78 9 1.0 5.0 0.00 0.00 0.00 51 1015.9
20180527140525 77 9 2.0 6.0 0.00 0.00 0.00 49 1016.0
20180527140033 77 9 1.0 6.0 0.00 0.00 0.00 49 1016.2
20180527135521 78 9 1.0 6.0 0.00 0.00 0.00 49 1016.1
20180527135022 78 11 1.0 6.0 0.00 0.00 0.00 46 1016.2
20180527134525 78 22 1.0 6.0 0.00 0.00 0.00 47 1016.1
20180527134022 78 15 2.0 6.0 0.00 0.00 0.00 45 1016.1
20180527133525 78 15 2.0 7.0 0.00 0.00 0.00 47 1016.1
20180527133026 78 19 1.0 7.0 0.00 0.00 0.00 47 1016.0
20180527132524 78 26 2.0 8.0 0.00 0.00 0.00 50 1016.0
20180527132023 78 26 3.0 8.0 0.00 0.00 0.00 48 1016.1
20180527131523 78 22 3.0 9.0 0.00 0.00 0.00 48 1016.0
20180527131022 78 38 3.0 9.0 0.00 0.00 0.00 50 1016.1
20180527130525 78 349 4.0 9.0 0.00 0.00 0.00 48 1016.2
20180527130033 78 350 3.0 9.0 0.00 0.00 0.00 49 1016.1
20180527125523 79 19 4.0 9.0 0.00 0.00 0.00 49 1016.1
20180527125022 79 47 4.0 9.0 0.00 0.00 0.00 51 1016.1
20180527124526 79 9 3.0 8.0 0.00 0.00 0.00 52 1016.1
20180527124024 79 338 3.0 8.0 0.00 0.00 0.00 51 1016.3
20180527123525 79 0 2.0 13.0 0.00 0.00 0.00 50 1016.3
20180527123027 79 337 3.0 13.0 0.00 0.00 0.00 47 1016.2
20180527122525 79 323 5.0 13.0 0.00 0.00 0.00 46 1016.2
20180527122023 79 339 6.0 13.0 0.00 0.00 0.00 46 1016.2
20180527121523 79 11 5.0 11.0 0.00 0.00 0.00 46 1016.4
20180527121022 79 28 3.0 11.0 0.00 0.00 0.00 50 1016.4
20180527120525 79 42 2.0 11.0 0.00 0.00 0.00 49 1016.5
20180527120033 79 53 3.0 11.0 0.00 0.00 0.00 51 1016.4
20180527115521 79 49 2.0 6.0 0.00 0.00 0.00 52 1016.6
20180527115022 79 13 2.0 6.0 0.00 0.00 0.00 51 1016.5
20180527114525 79 17 3.0 6.0 0.00 0.00 0.00 51 1016.6
20180527114023 78 327 2.0 6.0 0.00 0.00 0.00 52 1016.6
20180527113524 79 17 0.0 6.0 0.00 0.00 0.00 53 1016.6
20180527113026 79 9 0.0 6.0 0.00 0.00 0.00 54 1016.6
20180527112525 79 9 1.0 7.0 0.00 0.00 0.00 51 1016.6
20180527112024 79 9 1.0 7.0 0.00 0.00 0.00 50 1016.7
20180527111524 78 5 2.0 7.0 0.00 0.00 0.00 51 1016.7
20180527111023 78 0 2.0 7.0 0.00 0.00 0.00 51 1016.8
20180527110525 78 57 0.0 6.0 0.00 0.00 0.00 53 1016.9
20180527110033 78 57 1.0 5.0 0.00 0.00 0.00 53 1017.1
20180527105525 78 57 1.0 5.0 0.00 0.00 0.00 52 1017.1
20180527105025 78 84 1.0 6.0 0.00 0.00 0.00 53 1017.2
20180527104526 77 163 0.0 6.0 0.00 0.00 0.00 53 1017.2
20180527104024 77 66 0.0 6.0 0.00 0.00 0.00 54 1017.3
20180527103527 76 67 1.0 8.0 0.00 0.00 0.00 54 1017.3
20180527103028 76 67 1.0 8.0 0.00 0.00 0.00 51 1017.3
20180527102526 77 63 1.0 8.0 0.00 0.00 0.00 54 1017.3
20180527102025 76 61 2.0 8.0 0.00 0.00 0.00 58 1017.2
20180527101526 76 59 2.0 8.0 0.00 0.00 0.00 59 1017.1
20180527101024 76 67 2.0 7.0 0.00 0.00 0.00 57 1017.1
20180527100529 75 75 2.0 8.0 0.00 0.00 0.00 59 1017.0
20180527100033 75 57 1.0 8.0 0.00 0.00 0.00 64 1017.0
20180527095523 74 58 2.0 8.0 0.00 0.00 0.00 64 1016.9
20180527095023 74 57 3.0 8.0 0.00 0.00 0.00 65 1016.9
20180527094526 74 56 3.0 8.0 0.00 0.00 0.00 64 1017.1
20180527094023 74 79 3.0 8.0 0.00 0.00 0.00 66 1017.1
20180527093526 73 75 4.0 10.0 0.00 0.00 0.00 66 1017.0
20180527093026 74 55 3.0 10.0 0.00 0.00 0.00 66 1017.0
20180527092524 73 75 3.0 10.0 0.00 0.00 0.00 68 1017.0
20180527092023 73 66 4.0 10.0 0.00 0.00 0.00 67 1017.2
20180527091525 73 53 4.0 10.0 0.00 0.00 0.00 68 1017.2
20180527091023 73 62 3.0 10.0 0.00 0.00 0.00 67 1017.2
20180527090528 73 48 3.0 8.0 0.00 0.00 0.00 69 1017.2
20180527090033 73 42 3.0 8.0 0.00 0.00 0.00 70 1017.2
20180527085523 73 53 3.0 8.0 0.00 0.00 0.00 68 1017.2
20180527085023 73 83 2.0 6.0 0.00 0.00 0.00 69 1017.2
20180527084525 73 53 2.0 7.0 0.00 0.00 0.00 70 1017.2
20180527084023 72 69 2.0 7.0 0.00 0.00 0.00 72 1017.0
20180527083526 71 75 2.0 7.0 0.00 0.00 0.00 72 1017.1
20180527083026 71 58 3.0 7.0 0.00 0.00 0.00 71 1017.1
20180527082524 71 53 3.0 5.0 0.00 0.00 0.00 70 1017.2
20180527082022 71 38 2.0 5.0 0.00 0.00 0.00 71 1017.3
20180527081526 71 35 1.0 5.0 0.00 0.00 0.00 70 1017.3
20180527081023 71 32 1.0 5.0 0.00 0.00 0.00 71 1017.3
20180527080527 71 32 1.0 5.0 0.00 0.00 0.00 70 1017.3
20180527080033 71 30 1.0 5.0 0.00 0.00 0.00 70 1017.4
20180527075523 71 30 1.0 5.0 0.00 0.00 0.00 71 1017.4
20180527075023 70 30 1.0 4.0 0.00 0.00 0.00 71 1017.3
20180527074525 70 29 1.0 4.0 0.00 0.00 0.00 71 1017.2
20180527074024 70 28 1.0 4.0 0.00 0.00 0.00 71 1017.3
20180527073526 70 333 0.0 2.0 0.00 0.00 0.00 72 1017.3
20180527073025 69 320 0.0 2.0 0.00 0.00 0.00 72 1017.3
20180527072526 69 320 0.0 0.0 0.00 0.00 0.00 71 1017.3
20180527072023 69 319 0.0 0.0 0.00 0.00 0.00 73 1017.2
20180527071524 69 319 0.0 0.0 0.00 0.00 0.00 74 1017.2
20180527071023 68 319 0.0 0.0 0.00 0.00 0.00 74 1017.2
20180527070526 67 319 0.0 0.0 0.00 0.00 0.00 75 1017.1
20180527070033 67 319 0.0 0.0 0.00 0.00 0.00 78 1017.1
20180527065525 66 319 0.0 0.0 0.00 0.00 0.00 80 1017.2
20180527065023 66 319 0.0 0.0 0.00 0.00 0.00 80 1017.2
20180527064525 65 319 0.0 0.0 0.00 0.00 0.00 81 1017.2
20180527064023 65 319 0.0 0.0 0.00 0.00 0.00 81 1017.1
20180527063526 64 319 0.0 0.0 0.00 0.00 0.00 82 1017.2
20180527063026 64 319 0.0 0.0 0.00 0.00 0.00 83 1017.2
20180527062524 64 319 0.0 0.0 0.00 0.00 0.00 83 1017.2
20180527062022 63 319 0.0 0.0 0.00 0.00 0.00 83 1017.0
20180527061525 63 319 0.0 0.0 0.00 0.00 0.00 84 1017.0
20180527061023 62 319 0.0 0.0 0.00 0.00 0.00 84 1017.0
20180527060526 62 159 0.0 0.0 0.00 0.00 0.00 84 1017.0
20180527060033 62 159 0.0 0.0 0.00 0.00 0.00 83 1017.0
20180527055523 62 159 0.0 0.0 0.00 0.00 0.00 84 1016.9
20180527055023 61 159 0.0 0.0 0.00 0.00 0.00 84 1016.9
20180527054527 61 159 0.0 0.0 0.00 0.00 0.00 85 1016.9
20180527054023 60 159 0.0 0.0 0.00 0.00 0.00 85 1016.8
20180527053525 60 159 0.0 0.0 0.00 0.00 0.00 85 1016.8
20180527053025 59 159 0.0 0.0 0.00 0.00 0.00 85 1016.9
20180527052525 59 159 0.0 0.0 0.00 0.00 0.00 85 1016.8
20180527052023 58 159 0.0 0.0 0.00 0.00 0.00 85 1016.9
20180527051524 57 159 0.0 0.0 0.00 0.00 0.00 85 1016.9
20180527051023 57 159 0.0 0.0 0.00 0.00 0.00 84 1016.9
20180527050526 56 159 0.0 0.0 0.00 0.00 0.00 84 1016.9
20180527050033 56 159 0.0 0.0 0.00 0.00 0.00 83 1016.9
20180527045524 55 159 0.0 0.0 0.00 0.00 0.00 83 1016.9
20180527045025 55 159 0.0 0.0 0.00 0.00 0.00 83 1016.9
20180527044527 54 159 0.0 0.0 0.00 0.00 0.00 84 1017.0
20180527044025 54 159 0.0 0.0 0.00 0.00 0.00 84 1017.0
20180527043527 54 159 0.0 0.0 0.00 0.00 0.00 85 1017.0
20180527043026 54 159 0.0 0.0 0.00 0.00 0.00 85 1017.0
20180527042529 54 159 0.0 0.0 0.00 0.00 0.00 85 1017.0
20180527042025 54 159 0.0 0.0 0.00 0.00 0.00 85 1017.0
20180527041526 54 159 0.0 0.0 0.00 0.00 0.00 85 1016.9
20180527041023 54 159 0.0 0.0 0.00 0.00 0.00 85 1016.9
20180527040530 54 159 0.0 0.0 0.00 0.00 0.00 85 1016.9
20180527040025 54 159 0.0 0.0 0.00 0.00 0.00 84 1016.9
20180527035523 54 159 0.0 0.0 0.00 0.00 0.00 84 1016.9
20180527035023 54 159 0.0 4.0 0.00 0.00 0.00 84 1016.9
20180527034526 54 159 0.0 5.0 0.00 0.00 0.00 85 1017.1
20180527034023 54 159 1.0 5.0 0.00 0.00 0.00 85 1017.0
20180527033527 54 158 2.0 2.0 0.00 0.00 0.00 85 1017.1
20180527033025 54 158 1.0 2.0 0.00 0.00 0.00 85 1017.1
20180527032524 54 158 0.0 2.0 0.00 0.00 0.00 85 1016.9
20180527032024 54 158 0.0 2.0 0.00 0.00 0.00 85 1016.9
20180527031524 54 158 0.0 2.0 0.00 0.00 0.00 85 1016.9
20180527031023 54 158 0.0 6.0 0.00 0.00 0.00 85 1016.9
20180527030526 54 158 0.0 6.0 0.00 0.00 0.00 85 1017.0
20180527030033 54 158 1.0 6.0 0.00 0.00 0.00 85 1017.0
20180527025523 55 158 1.0 6.0 0.00 0.00 0.00 85 1017.0
20180527025023 55 158 0.0 0.0 0.00 0.00 0.00 85 1017.0
20180527024524 55 158 0.0 0.0 0.00 0.00 0.00 85 1017.1
20180527024021 55 158 0.0 0.0 0.00 0.00 0.00 85 1017.0
20180527023521 55 158 0.0 0.0 0.00 0.00 0.00 85 1017.2
20180527023023 55 158 0.0 1.0 0.00 0.00 0.00 85 1017.1
20180527022522 55 158 0.0 1.0 0.00 0.00 0.00 85 1017.3
20180527022021 55 158 0.0 1.0 0.00 0.00 0.00 85 1017.2
20180527021521 55 158 0.0 1.0 0.00 0.00 0.00 85 1017.3
20180527021021 55 158 0.0 0.0 0.00 0.00 0.00 85 1017.4
20180527020524 55 158 0.0 0.0 0.00 0.00 0.00 85 1017.5
20180527020024 55 158 0.0 0.0 0.00 0.00 0.00 85 1017.6
20180527015520 55 158 0.0 0.0 0.00 0.00 0.00 85 1017.6
20180527015021 55 158 0.0 5.0 0.00 0.00 0.00 85 1017.6
20180527014524 55 158 0.0 5.0 0.00 0.00 0.00 85 1017.7
20180527014021 55 158 2.0 5.0 0.00 0.00 0.00 85 1017.7
20180527013522 55 158 2.0 5.0 0.00 0.00 0.00 85 1017.8
20180527013023 56 158 1.0 0.0 0.00 0.00 0.00 85 1017.8
20180527012522 56 106 0.0 0.0 0.00 0.00 0.00 85 1017.8
20180527012022 56 106 0.0 0.0 0.00 0.00 0.00 85 1017.9
20180527011522 55 106 0.0 1.0 0.00 0.00 0.00 84 1017.9
20180527011021 55 106 0.0 4.0 0.00 0.00 0.00 85 1017.9
20180527010524 55 106 0.0 4.0 0.00 0.00 0.00 85 1018.1
20180527010024 55 106 0.0 4.0 0.00 0.00 0.00 85 1018.1
20180527005520 55 105 1.0 4.0 0.00 0.00 0.00 85 1018.1
20180527005021 56 105 1.0 2.0 0.00 0.00 0.00 85 1018.1
20180527004523 56 102 0.0 2.0 0.00 0.00 0.00 85 1018.1
20180527004021 56 102 0.0 2.0 0.00 0.00 0.00 85 1018.1
20180527003522 56 102 0.0 2.0 0.00 0.00 0.00 85 1018.2
20180527003024 56 102 0.0 0.0 0.00 0.00 0.00 85 1018.2
20180527002523 56 102 0.0 0.0 0.00 0.00 0.00 85 1018.2
20180527002021 56 102 0.0 0.0 0.00 0.00 0.00 85 1018.3
20180527001521 56 102 0.0 1.0 0.00 0.00 0.00 85 1018.3
20180527001021 56 102 0.0 1.0 0.00 0.00 0.00 85 1018.3
20180527000526 56 102 0.0 1.0 0.00 0.00 0.00 85 1018.3
20180527000024 57 102 0.0 0.0 0.00 0.00 0.00 85 1018.5
20180526235520 57 102 0.0 0.0 0.00 0.00 0.00 85 1018.5
20180526235021 57 102 0.0 0.0 0.00 0.00 0.00 85 1018.4
20180526234523 57 102 0.0 0.0 0.00 0.00 0.00 85 1018.4
20180526234021 57 102 0.0 0.0 0.00 0.00 0.00 85 1018.5
20180526233521 57 102 0.0 0.0 0.00 0.00 0.00 85 1018.5
20180526233024 56 102 0.0 0.0 0.00 0.00 0.00 85 1018.7
20180526232522 56 102 0.0 0.0 0.00 0.00 0.00 85 1018.7
20180526232022 56 102 0.0 2.0 0.00 0.00 0.00 85 1018.7
20180526231522 57 102 0.0 2.0 0.00 0.00 0.00 85 1018.8
20180526231020 57 102 0.0 2.0 0.00 0.00 0.00 85 1019.0
20180526230524 57 102 0.0 2.0 0.00 0.00 0.00 85 1019.0
20180526230024 57 102 0.0 0.0 0.00 0.00 0.00 85 1019.0
20180526225520 57 102 0.0 0.0 0.00 0.00 0.00 85 1019.0
20180526225021 57 102 0.0 0.0 0.00 0.00 0.00 85 1019.1
20180526224523 57 102 0.0 0.0 0.00 0.00 0.00 85 1019.0
20180526224021 58 102 0.0 0.0 0.00 0.00 0.00 85 1019.1
20180526223526 58 102 0.0 0.0 0.00 0.00 0.00 85 1019.1
20180526223025 58 102 0.0 0.0 0.00 0.00 0.00 85 1019.1
20180526222523 58 102 0.0 0.0 0.00 0.00 0.00 85 1019.1
20180526222023 58 102 0.0 1.0 0.00 0.00 0.00 85 1019.1
20180526221525 58 102 0.0 1.0 0.00 0.00 0.00 85 1019.0
20180526221021 58 102 0.0 4.0 0.00 0.00 0.00 85 1019.0
20180526220526 58 102 0.0 4.0 0.00 0.00 0.00 85 1019.1
20180526220025 58 102 0.0 4.0 0.00 0.00 0.00 85 1019.1
20180526215520 58 102 0.0 4.0 0.00 0.00 0.00 85 1019.2
20180526215022 58 98 0.0 4.0 0.00 0.00 0.00 85 1019.0
20180526214524 58 96 1.0 4.0 0.00 0.00 0.00 85 1019.1
20180526214021 58 94 1.0 2.0 0.00 0.00 0.00 84 1019.1
20180526213523 59 57 0.0 2.0 0.00 0.00 0.00 84 1018.9
20180526213024 59 57 0.0 0.0 0.00 0.00 0.00 84 1018.8
20180526212523 59 55 0.0 0.0 0.00 0.00 0.00 84 1018.7
20180526212021 59 55 0.0 0.0 0.00 0.00 0.00 84 1018.8
20180526211521 59 55 0.0 0.0 0.00 0.00 0.00 84 1018.8
20180526211022 59 55 0.0 4.0 0.00 0.00 0.00 84 1018.8
20180526210524 59 55 0.0 4.0 0.00 0.00 0.00 84 1018.7
20180526210023 59 55 0.0 4.0 0.00 0.00 0.00 84 1018.7
20180526205520 59 55 1.0 4.0 0.00 0.00 0.00 84 1018.8
20180526205022 60 55 1.0 2.0 0.00 0.00 0.00 83 1018.8
20180526204524 61 52 0.0 2.0 0.00 0.00 0.00 82 1018.7
20180526204021 61 52 0.0 1.0 0.00 0.00 0.00 82 1018.7
20180526203520 62 52 0.0 1.0 0.00 0.00 0.00 81 1018.7
20180526203023 62 52 0.0 0.0 0.00 0.00 0.00 81 1018.7
20180526202522 63 52 0.0 0.0 0.00 0.00 0.00 80 1018.7
20180526202022 63 52 0.0 0.0 0.00 0.00 0.00 79 1018.8
20180526201522 63 52 0.0 0.0 0.00 0.00 0.00 78 1018.9
20180526201021 64 52 0.0 0.0 0.00 0.00 0.00 78 1018.9
20180526200525 64 52 0.0 0.0 0.00 0.00 0.00 78 1018.9
20180526200023 64 52 0.0 0.0 0.00 0.00 0.00 78 1018.9
20180526195522 65 52 0.0 0.0 0.00 0.00 0.00 77 1018.8
20180526195022 65 52 0.0 0.0 0.00 0.00 0.00 76 1018.8
20180526194523 66 52 0.0 0.0 0.00 0.00 0.00 75 1018.7
20180526194022 66 52 0.0 0.0 0.00 0.00 0.00 74 1018.5
20180526193522 66 52 0.0 0.0 0.00 0.00 0.00 73 1018.4
20180526193023 67 52 0.0 0.0 0.00 0.00 0.00 73 1018.4
20180526192522 67 52 0.0 0.0 0.00 0.00 0.00 72 1018.4
20180526192021 68 52 0.0 0.0 0.00 0.00 0.00 71 1018.4
20180526191522 69 52 0.0 0.0 0.00 0.00 0.00 69 1018.4
20180526191022 69 52 0.0 0.0 0.00 0.00 0.00 64 1018.3
20180526190524 69 52 0.0 0.0 0.00 0.00 0.00 64 1018.2
20180526190024 69 52 0.0 0.0 0.00 0.00 0.00 64 1018.1
20180526185519 70 52 0.0 0.0 0.00 0.00 0.00 63 1018.1
20180526185021 70 52 0.0 0.0 0.00 0.00 0.00 62 1018.1
20180526184524 70 52 0.0 0.0 0.00 0.00 0.00 62 1018.0
20180526184021 70 52 0.0 0.0 0.00 0.00 0.00 61 1018.2
20180526183522 71 52 0.0 0.0 0.00 0.00 0.00 61 1018.0
20180526183024 71 52 0.0 0.0 0.00 0.00 0.00 61 1018.0
20180526182523 71 52 0.0 0.0 0.00 0.00 0.00 61 1018.0
20180526182022 71 52 0.0 3.0 0.00 0.00 0.00 60 1018.1
20180526181522 71 52 0.0 3.0 0.00 0.00 0.00 60 1018.0
20180526181021 71 52 0.0 1.0 0.00 0.00 0.00 60 1017.9
20180526180523 71 52 0.0 1.0 0.00 0.00 0.00 59 1017.9
20180526180025 72 52 0.0 1.0 0.00 0.00 0.00 60 1017.9
20180526175520 72 52 0.0 1.0 0.00 0.00 0.00 59 1017.8
20180526175022 72 52 0.0 1.0 0.00 0.00 0.00 58 1017.9
20180526174523 72 52 0.0 1.0 0.00 0.00 0.00 58 1017.9